Weather History for Cheyenne, WY

Change the Weather History Date:

Thursday, February 6, 2014

  Actual Average Record
Temperature  
Mean Temperature -11 °F 28 °F  
Max Temperature -1 °F 39 °F 63 °F (1963)
Min Temperature -21 °F 18 °F -28 °F (1899)
Degree Days  
Heating Degree Days 76 37  
Month to date heating degree days 376 222  
Since 1 July heating degree days 4400 4249  
Cooling Degree Days 0 0  
Month to date cooling degree days 0 0  
Year to date cooling degree days 0 0  
Moisture  
Dew Point -16 °F    
Average Humidity 78    
Maximum Humidity 91    
Minimum Humidity 65    
Precipitation  
Precipitation 0.01 in 0.01 in 0.28 in (1896)
Month to date precipitation 0.24 0.08  
Year to date precipitation 1.25 0.41  
Snow  
Snow 0.20 in 0.30 in 2.80 in (1896)
Month to date snowfall 6.9 1.6  
Since 1 July snowfall 47.6 30.2  
Snow Depth 5.00 in    
Sea Level Pressure  
Sea Level Pressure 30.26 in    
Wind  
Wind Speed 2 mph (SW)    
Max Wind Speed 12 mph    
Max Gust Speed 14 mph    
Visibility 7 miles    
Events Fog , Snow    
T = Trace of Precipitation, MM = Missing Value Source: NWS Daily Summary

Daily Weather History Graph

Daily Weather History Graph

Search for Another Location

Airport:

Trip Planner

Search our weather history database for the weather conditions in past years. The results will help you decide how hot, cold, wet, or windy it might be!

Date:

Astronomy

Feb. 06, 2014 Rise Set
Actual Time 7:04 AM MST 5:22 PM MST
Civil Twilight 6:36 AM MST 5:51 PM MST
Nautical Twilight 6:03 AM MST 6:23 PM MST
Astronomical Twilight 5:31 AM MST 6:56 PM MST
Moon 10:55 AM MST (2/6) 12:23 AM MST (2/6)
Length of Visible Light 11h 15m
Length of Day
10h 17m
Waxing Crescent, 50% of the Moon is Illuminated
Feb 6
Waxing Crescent
Feb 6
First Quarter
Feb 14
Full
Feb 22
Last Quarter
Mar 1
New

Hourly Weather History & Observations

Time (MST) Temp. Windchill Dew Point Humidity Pressure Visibility Wind Dir Wind Speed Gust Speed Precip Events Conditions
12:53 AM -13.0 °F - -18.9 °F 75% 30.52 in 7.0 mi Calm Calm - N/A   Mostly Cloudy
1:04 AM -13.0 °F - -18.4 °F 77% 30.05 in 10.0 mi Calm Calm - N/A   Mostly Cloudy
1:53 AM -17.0 °F -33.4 °F -22.0 °F 78% 30.53 in 9.0 mi West 6.9 mph - N/A   Mostly Cloudy
2:53 AM -18.0 °F - -23.1 °F 78% 30.52 in 10.0 mi Calm Calm - N/A   Partly Cloudy
3:53 AM -20.0 °F - -25.1 °F 78% 30.53 in 10.0 mi Calm Calm - N/A   Clear
4:53 AM -20.0 °F -35.3 °F -25.1 °F 78% 30.53 in 5.0 mi WNW 5.8 mph - 0.00 in Snow Light Snow
5:15 AM -18.4 °F -35.1 °F -25.6 °F 70% 30.01 in 9.0 mi West 6.9 mph - 0.00 in   Overcast
5:53 AM -18.9 °F - -24.0 °F 78% 30.50 in 5.0 mi Calm Calm - 0.00 in Snow Light Snow
6:53 AM -15.0 °F - -20.0 °F 78% 30.48 in 5.0 mi Calm Calm - 0.00 in   Haze
7:49 AM -14.8 °F - -18.4 °F 84% 29.98 in 5.0 mi Calm Calm - N/A   Mostly Cloudy
7:53 AM -14.1 °F - -17.0 °F 87% 30.47 in 5.0 mi Calm Calm - N/A   Mostly Cloudy
8:03 AM -13.0 °F - -16.6 °F 84% 29.98 in 5.0 mi Calm Calm - N/A   Mostly Cloudy
8:12 AM -13.0 °F - -18.4 °F 77% 29.98 in 3.0 mi Calm Calm - N/A   Haze
8:28 AM -11.2 °F - -16.6 °F 77% 29.99 in 1.8 mi Calm Calm - N/A   Overcast
8:53 AM -11.9 °F - -15.0 °F 86% 30.46 in 1.5 mi Calm Calm - N/A   Overcast
9:39 AM -9.4 °F - -14.8 °F 77% 29.97 in 1.0 mi Calm Calm - N/A   Haze
9:53 AM -9.0 °F - -13.0 °F 83% 30.44 in 0.5 mi Calm Calm - 0.00 in Fog , Snow Light Snow
10:16 AM -7.6 °F - -11.2 °F 84% 29.97 in 1.0 mi Calm Calm - 0.00 in Snow Light Snow
1:43 PM -4.0 °F -14.6 °F -9.4 °F 78% 29.85 in 4.0 mi SW 4.6 mph - 0.00 in Snow Light Snow
1:53 PM -2.9 °F -13.3 °F -9.9 °F 72% 30.30 in 4.0 mi SSW 4.6 mph - 0.00 in Snow Light Snow
2:53 PM -0.9 °F - -9.0 °F 69% 30.28 in 10.0 mi Calm Calm - 0.00 in   Mostly Cloudy
3:53 PM -0.9 °F -8.9 °F -9.0 °F 69% 30.29 in 10.0 mi SSW 3.5 mph - N/A   Mostly Cloudy
4:53 PM -2.9 °F -13.3 °F -9.9 °F 72% 30.30 in 10.0 mi SSW 4.6 mph - N/A   Scattered Clouds
5:53 PM -4.0 °F - -11.0 °F 72% 30.28 in 10.0 mi Calm Calm - N/A   Partly Cloudy
6:53 PM -5.1 °F -15.8 °F -11.0 °F 76% 30.26 in 10.0 mi SSW 4.6 mph - N/A   Clear
7:53 PM -7.1 °F -22.8 °F -11.9 °F 79% 30.25 in 8.0 mi SW 8.1 mph - N/A   Clear
8:53 PM -7.1 °F -15.9 °F -11.0 °F 83% 30.23 in 8.0 mi WSW 3.5 mph - N/A   Clear
9:53 PM -8.0 °F -21.0 °F -13.0 °F 79% 30.21 in 9.0 mi West 5.8 mph - N/A   Clear
10:53 PM -6.0 °F - -11.9 °F 75% 30.17 in 9.0 mi Calm Calm - N/A   Clear
11:53 PM -5.1 °F - -9.9 °F 80% 30.14 in 9.0 mi Calm Calm - N/A   Clear